Regional Weather Roundup
Issued by NWS Kansas City/Pleasant Hill, MO

Home | Current Version | Previous Version | Graphics & Text | Print | Product List | Glossary Off
Versions: 1 2 3 4 5 6 7 8 9 10 11 12 13 14 15 16 17 18 19 20 21 22 23 24 25 26 27 28 29 30 31 32 33 34 35 36 37 38 39 40 41 42 43 44 45 46 47 48 49 50

567
ASUS43 KEAX 020410
RWREAX

WEATHER ROUNDUP FOR EASTERN KANSAS AND NORTHWEST MISSOURI
NATIONAL WEATHER SERVICE KANSAS CITY/PLEASANT HILL MO
1000 PM CST THU DEC 01 2016

KSZ040-057-103>105-MOZ028-029-037-043-020500-
...KANSAS CITY METROPOLITAN AREA...

CITY           SKY/WX    TMP DP  RH WIND       PRES   REMARKS
K.C. INTL      CLEAR     38  23  55 CALM      30.08R
K.C. DOWNTOWN  CLEAR     32  26  78 CALM      30.09R
LEES SUMMIT    CLEAR     36  24  62 S5        30.09R WCI  32
OLATHE - IXD   CLEAR     28  22  78 CALM      30.09R
OLATHE - OJC   CLEAR     32  23  69 CALM      30.09R
LAWRENCE       CLEAR     24  22  91 CALM      30.10R

$$

MOZ001>008-011>017-020>025-030>033-038>040-044>046-053-054-020500-
...NORTHERN AND CENTRAL MISSOURI...

CITY           SKY/WX    TMP DP  RH WIND       PRES   REMARKS
ST. JOSEPH     CLEAR     27  23  85 CALM      30.08S
MOSBY            N/A     27  25  93 CALM      30.09S
WARRENSBURG    CLEAR     30  27  86 CALM      30.10R
WHITEMAN AFB   CLEAR     29  24  82 CALM      30.08S
CLINTON        CLEAR     28  25  86 CALM      30.11R
SEDALIA        CLEAR     33  24  69 CALM      30.11R
WARSAW         NOT AVBL
CHILLICOTHE      N/A     27  24  89 CALM      30.10R
KIRKSVILLE     CLOUDY    36  29  75 W3        30.08R

$$

MOZ041-047>049-056>058-063>065-088>090-097-020500-
...EASTERN AND SOUTHERN MISSOURI...

CITY           SKY/WX    TMP DP  RH WIND       PRES   REMARKS
ST. LOUIS INTL PTCLDY    35  27  72 SW3       30.10R
SPIRIT OF STL  PTCLDY    29  26  89 CALM      30.10S
COLUMBIA       PTCLDY    34  25  69 NW3       30.09R
JEFFERSON CITY CLEAR     29  24  82 CALM      30.11R
ROLLA          CLEAR     31  23  72 CALM      30.07S
OSAGE BEACH    CLEAR     29  23  78 CALM      30.10S
SPRINGFIELD    CLEAR     30  23  75 CALM      30.08R
BRANSON        CLEAR     36  25  64 CALM      30.08R
JOPLIN         CLOUDY    39  27  62 E6        30.09R WCI  35
WEST PLAINS    CLEAR     31  25  78 CALM      30.09S

$$

IAZ060-094-KSZ022-034>040-054-083-096-NEZ052-066-093-020500-
...KANSAS...SOUTHEAST NEBRASKA AND IOWA...

CITY           SKY/WX    TMP DP  RH WIND       PRES   REMARKS
TOPEKA         CLEAR     27  22  81 CALM      30.09R
MANHATTAN      CLEAR     25  20  81 CALM      30.09R
EMPORIA        MOCLDY    32  22  66 NW3       30.07S
CHANUTE        CLOUDY    39  28  64 SE6       30.08R WCI  35
WICHITA        MOCLDY    39  23  52 NE7       30.05R WCI  34
OMAHA          CLOUDY    33  27  78 NW5       30.07S WCI  29
LINCOLN        CLEAR     28  23  81 CALM      30.09R
FALLS CITY     CLEAR     29  24  82 CALM      30.08R
LAMONI         MOCLDY    31  26  82 W5        30.06R WCI  26
DES MOINES     FLURRIES  37  29  72 NW7       30.05S WCI  32

$$





USA.gov is the U.S. government's official web portal to all federal, state and local government web resources and services.